Regional Weather Roundup
Issued by NWS

Home | Current Version | Previous Version | Text Only | Print | Product List | Glossary Off
Versions: 1 2 3 4 5 6 7 8 9 10 11 12 13 14 15 16 17 18 19 20 21 22 23 24 25 26 27 28 29 30 31 32 33 34 35 36 37 38 39 40 41 42 43 44 45 46 47 48 49 50

000
ASUS43 KTOP 300759
RWRKS

WEATHER ROUNDUP FOR KANSAS
NATIONAL WEATHER SERVICE GOODLAND KS
300 AM CDT THU OCT 30 2014

NOTE:  "FAIR" INDICATES FEW OR NO CLOUDS BELOW 12,000 FEET WITH NO
SIGNIFICANT WEATHER AND/OR OBSTRUCTIONS TO VISIBILITY.

KSZ001>006-013>018-027>032-041>047-300900-
NORTHWEST KANSAS

CITY           SKY/WX    TMP DP  RH WIND       PRES   REMARKS
GOODLAND       CLEAR     40  25  55 W9        30.16R
HAYS           PTCLDY    48  37  66 W8        30.02R
HILL CITY      LGT RAIN  54  27  35 NW15      30.04R
RUSSELL        PTCLDY    50  39  66 SW13      29.99R
$$

KSZ061>065-074>080-084>089-300900-
SOUTHWEST KANSAS

CITY           SKY/WX    TMP DP  RH WIND       PRES   REMARKS
DODGE CITY     CLEAR     51  36  56 W14       30.08R
ELKHART          N/A     45  33  63 N5          N/A
GARDEN CITY    CLEAR     43  36  76 NW8       30.09R
GREAT BEND     CLEAR     48  34  57 SW13      30.02F
LIBERAL        CLEAR     45  34  65 SW7       30.10S
$$

KSZ066>073-081>083-090>101-300900-
SOUTHEAST KANSAS

CITY           SKY/WX    TMP DP  RH WIND       PRES   REMARKS
CHANUTE        CLEAR     50  41  71 S8        30.07F
COFFEYVILLE    CLEAR     47  40  76 S6        30.09F
HUTCHINSON     CLEAR     46  34  62 S7        30.04S
NEWTON         PTCLDY    52  30  43 S10       30.06S
PARSONS        CLEAR     47  40  76 S5        30.09F
WICHITA INTL   CLEAR     50  35  56 S9        30.05R
WICHITA JABRA  CLEAR     53  35  50 S12       30.04F
WINFIELD       CLEAR     52  39  61 S10       30.07F
$$

KSZ007>012-019>026-033>040-048>060-102>105-300900-
NORTHEAST KANSAS

CITY           SKY/WX    TMP DP  RH WIND       PRES   REMARKS
CONCORDIA      MOCLDY    54  36  50 SW14      29.95F
EMPORIA        CLEAR     46  38  73 S8        30.04F
LAWRENCE       CLEAR     42  36  79 SE3       30.05F
MANHATTAN      MOCLDY    55  37  50 SW14      30.00F
OLATHE IND     CLEAR     47  37  68 S8        30.06F
OLATHE EXE     CLEAR     45  36  70 S6        30.05F
SALINA         PTCLDY    51  37  58 S8        30.00F
TOPEKA BILLARD PTCLDY    44  39  82 CALM      30.03F
TOPEKA FORBES  PTCLDY    48  39  71 S5        30.03F
$$



USA.gov is the U.S. government's official web portal to all federal, state and local government web resources and services.